パンスターズ彗星

C/2015 ER61 ( PanSTARRS )

English version
Home page
Updated on April 22, 2017

---------------------------------------------------------------------

・ プロフィール

発見日 2015年3月14日
発見光度 20.7等
発見者 Pan-STARRS 1 telescope (Haleakala)

・ 写真集

・ 軌道要素

Epoch 2017 May 7.0 TT = JDT 2457880.5
T 2017 May  9.94415 TT                                  MPCW
q   1.0421120            (2000.0)            P               Q
z  +0.0025917      Peri.   68.19695     +0.54602651     +0.83282987
 +/-0.0000007      Node   235.21835     -0.80368401     +0.49011505
e   0.9972992      Incl.    6.34901     -0.23653131     +0.25725794
From 784 observations 2015 Jan. 21-2017 Mar. 6, mean residual 0".4.

・ 星図

・ 光度変化

        m1 = 3.0 + 5 logΔ + 15.0 log r  [    ,-390]  (              〜2016年 4月14日)
        m1 = 6.5 + 5 logΔ + 10.0 log r  [-390,    ]  (2016年 4月14日〜              )

---------------------------------------------------------------------

軌道要素はM.P.E.C. 2017-E59に掲載されたものです。
星図はステラナビゲータ Ver.10 (アストロアーツ) で作成したものです。
光度グラフはComet for Windowsで作成したものです。

---------------------------------------------------------------------

Copyright(C) Seiichi Yoshida (comet@aerith.net). All rights reserved.